Location: Newark
(45.8667°N, 9.7333°E)
Time: 05:05:34
(UTC+00:00)

Transit 4A - Pass Details

Date: 02 February 2020
Orbit: 872 x 973 km, 66.8° (Epoch: 17 February)

Event Time Altitude Azimuth Distance (km) Brightness Sun altitude
Rises 14:32:51 0° 311° (NW) 3,469 10.9 15.5°
Reaches altitude 10° 14:36:32 10° 288° (WNW) 2,531 10.6 15.0°
Maximum altitude 14:39:27 14° 257° (WSW) 2,245 11.1 14.7°
Drops below altitude 10° 14:42:23 10° 227° (SW) 2,541 13.5 14.3°
Sets 14:46:07 0° 203° (SSW) 3,491 12.2 13.8°
